Temp
74 63 58 66 67 71 69 67 65 70 76 70 66 67 73 74 73 70 67 64 64 63 65 66 67 67 66 65 65 65 66 65 64 67 77 75 75 75 76 79 79 79 78 79
66 59 71 77 75 70 70 65 64 70 76 70 67 67 72 73 70 68 65 60 60 60 61 63 64 65 64 63 65 63 64 65 66 68 73 73 73 77 81 79 78 78 77 77
64 70 81 77 71 71 65 63 64 63 70 70 65 61 66 70 68 68 63 61 61 59 58 60 61 61 63 63 62 64 62 63 64 66 67 70 72 72 72 72 74 77 77 77
67 76 76 70 71 70 60 71 70 68 61 51 64 47 59 65 64 64 60 59 58 58 59 59 59 59 60 61 63 63 64 63 64 65 63 64 63 63 65 67 67 70 74 70
67 69 69 67 70 74 64 71 67 65 58 52 58 49 55 65 58 58 59 60 58 58 59 57 58 59 59 61 61 61 61 65 65 64 64 62 61 62 63 64 65 66 67 68
71 76 74 70 75 73 74 66 63 60 54 44 60 54 50 56 57 58 61 61 61 59 60 60 59 61 60 61 60 60 59 61 63 64 63 61 60 61 61 61 61 63 65 65
68 70 74 77 65 69 64 53 43 42 42 44 60 55 50 62 63 61 59 61 60 60 59 58 57 57 57 58 59 62 60 62 61 60 61 62 61 61 61 61 61 61 61 63
55 54 67 74 66 56 58 53 44 35 38 45 59 47 51 65 65 65 64 61 61 59 59 58 58 57 58 59 59 59 59 57 58 58 58 58 58 60 61 61 61 61 62 62
53 57 72 76 73 67 57 50 56 48 48 42 49 53 61 65 62 63 62 61 58 58 58 58 59 57 57 57 57 57 56 56 57 56 56 55 56 56 56 60 60 60 62 63
59 50 68 70 71 69 61 63 47 45 35 34 47 49 47 56 59 61 61 58 58 58 58 57 56 56 57 57 57 57 56 56 56 56 55 56 55 56 56 56 56 56 58 61
59 53 56 64 59 57 57 52 52 49 47 37 35 43 57 56 58 59 61 61 59 59 58 57 57 58 58 58 57 56 56 56 55 56 55 54 55 56 56 55 56 56 56 57
58 52 45 54 65 69 62 54 52 40 40 43 42 42 63 61 62 63 63 66 61 61 59 59 59 59 58 57 56 55 55 55 55 56 55 55 55 56 55 55 56 56 56 57
55 47 40 48 54 61 56 60 57 51 47 41 35 39 64 66 61 62 61 65 63 61 60 59 59 58 59 58 57 56 56 56 56 56 55 55 55 54 54 55 56 57 57 57
60 49 46 38 46 53 52 58 59 52 42 44 46 49 56 60 59 64 63 62 63 62 63 61 60 60 61 59 58 58 58 58 59 59 57 56 56 55 55 56 56 56 57 56
54 44 48 53 58 58 57 57 59 53 51 45 50 51 56 57 60 62 63 64 65 63 61 62 60 58 59 57 60 60 59 59 59 60 59 57 57 56 56 56 56 58 58 58
53 44 49 48 57 57 54 58 59 57 57 54 54 51 60 61 61 61 62 63 58 59 57 57 57 57 57 57 60 64 65 65 63 60 63 63 57 57 56 56 56 56 57 58
51 47 43 38 52 52 43 53 57 56 56 53 46 52 58 57 60 57 57 59 58 58 58 57 56 55 54 56 59 61 64 65 62 63 64 64 59 61 61 58 57 55 55 54
50 47 44 37 43 31 50 63 62 58 59 58 57 59 59 57 57 58 59 58 57 58 59 58 56 56 56 57 59 59 61 62 63 63 63 62 64 63 62 57 54 53 53 53
55 48 40 34 35 46 54 58 57 51 49 57 54 57 58 60 57 53 60 58 56 56 56 58 56 54 54 57 61 61 57 59 60 63 63 63 63 61 58 54 52 52 51 50
57 52 43 39 31 31 48 61 65 59 40 56 56 54 54 55 44 46 55 58 56 56 56 59 57 56 54 56 60 59 58 59 56 60 61 61 59 56 54 53 52 51 51 52
44 44 38 35 31 43 55 62 65 40 39 54 56 55 53 50 51 54 56 54 54 52 53 57 56 57 56 58 56 55 55 56 59 61 60 57 54 53 53 52 51 50 50 50
43 39 37 39 33 35 58 58 47 48 52 56 58 54 53 55 57 57 55 52 52 52 54 55 54 54 56 58 57 56 54 57 58 57 54 52 50 53 55 50 51 50 49 48
39 48 42 43 41 53 57 55 59 57 55 54 53 55 55 54 54 53 50 50 50 51 52 54 53 54 57 54 53 48 50 53 52 50 49 49 50 50 50 49 48 47 47 47
52 54 45 46 51 53 59 59 58 58 56 57 57 56 55 52 52 50 50 50 52 52 51 52 55 53 52 53 54 53 53 53 51 48 47 47 47 47 48 52 49 47 47 47
51 51 49 48 51 54 55 57 58 58 59 58 58 57 54 52 49 48 48 49 53 54 54 54 52 50 50 52 51 52 52 50 48 46 46 45 46 47 46 47 48 47 46 47
52 49 43 41 51 49 50 55 59 56 56 57 56 55 54 53 50 50 48 50 54 53 53 51 50 49 49 50 50 50 50 50 46 45 44 43 43 44 44 43 43 46 45 44
MSLP
1006.76 1007.30 1007.36 1007.33 1007.10 1007.08 1007.09 1006.92 1006.69 1006.31 1006.01 1006.29 1006.64 1007.11 1007.03 1007.38 1008.33 1009.79 1011.34 1012.69 1013.79 1014.57 1015.32 1015.08 1015.19 1015.88 1016.04 1015.84 1015.14 1014.66 1014.89 1015.03 1013.44 1014.59 1014.39 1012.40 1012.26 1012.18 1011.78 1011.19 1010.83 1011.03 1011.16 1011.40
1006.89 1007.05 1006.83 1006.60 1006.71 1006.96 1007.02 1007.23 1007.10 1006.54 1006.45 1006.77 1007.21 1007.81 1007.66 1008.26 1009.96 1010.97 1012.21 1013.82 1014.95 1015.43 1015.47 1015.74 1015.69 1016.33 1016.95 1017.21 1016.76 1016.33 1015.83 1015.57 1015.22 1014.81 1013.18 1012.54 1012.42 1011.76 1011.20 1010.98 1010.73 1010.91 1011.29 1011.60
1006.53 1006.63 1006.34 1006.45 1006.67 1006.88 1007.36 1007.80 1007.82 1007.86 1007.69 1007.71 1008.36 1008.75 1008.66 1010.19 1010.90 1012.05 1013.75 1014.85 1015.71 1016.32 1016.63 1016.97 1016.85 1017.64 1017.81 1017.57 1017.26 1016.83 1016.77 1016.49 1015.98 1015.21 1014.27 1013.18 1012.62 1012.34 1012.13 1012.73 1012.36 1011.65 1010.98 1011.10
1006.29 1006.33 1006.42 1006.54 1006.82 1007.02 1007.81 1008.26 1008.58 1008.90 1009.40 1009.66 1009.52 1010.12 1009.35 1010.51 1011.85 1013.06 1014.75 1015.84 1016.80 1017.27 1017.37 1018.03 1018.13 1018.20 1018.24 1018.00 1017.76 1017.49 1016.94 1016.46 1016.12 1015.46 1015.04 1014.76 1014.87 1014.69 1015.19 1014.55 1014.15 1012.71 1011.80 1011.89
1006.62 1006.65 1006.54 1006.80 1007.45 1007.68 1008.45 1008.83 1009.56 1010.05 1010.62 1010.95 1010.36 1011.05 1010.30 1010.78 1012.77 1014.08 1015.26 1016.27 1017.25 1017.70 1018.22 1018.67 1018.69 1018.50 1018.32 1018.14 1018.02 1017.84 1017.69 1016.99 1016.20 1015.92 1015.74 1015.42 1015.60 1015.92 1015.97 1015.12 1014.03 1014.04 1013.46 1013.44
1006.99 1006.74 1006.75 1007.11 1007.61 1008.15 1008.74 1009.48 1010.14 1010.56 1011.27 1012.21 1010.02 1011.38 1011.43 1011.60 1012.88 1014.36 1015.43 1016.41 1017.28 1018.02 1018.38 1018.72 1018.93 1018.68 1018.53 1018.33 1018.35 1018.16 1018.05 1017.65 1017.25 1016.96 1016.60 1016.20 1016.20 1015.94 1015.97 1015.85 1015.37 1015.30 1015.13 1015.04
1007.57 1006.89 1006.89 1007.46 1008.18 1008.66 1009.26 1010.47 1011.54 1012.32 1012.62 1012.15 1011.16 1010.67 1012.21 1012.25 1013.10 1014.22 1015.56 1016.62 1017.36 1017.91 1018.54 1019.11 1019.22 1019.05 1018.93 1018.55 1018.54 1018.55 1018.45 1018.25 1018.01 1017.67 1017.28 1017.03 1017.01 1016.40 1016.41 1016.65 1016.49 1015.81 1016.00 1015.95
1008.69 1008.22 1008.16 1008.39 1008.85 1009.66 1010.35 1011.03 1012.45 1013.38 1013.82 1013.26 1012.00 1012.30 1012.93 1012.90 1013.60 1014.40 1015.41 1016.37 1017.24 1018.02 1018.60 1019.03 1019.08 1018.88 1018.86 1018.68 1018.79 1018.83 1018.76 1018.79 1018.59 1018.28 1018.03 1017.74 1017.44 1017.11 1017.00 1016.81 1016.64 1016.59 1016.14 1016.29
1009.71 1009.49 1009.11 1008.99 1009.42 1010.13 1010.83 1011.71 1012.38 1013.46 1013.96 1014.37 1013.34 1013.40 1013.12 1013.08 1013.90 1014.63 1015.56 1016.43 1017.25 1017.98 1018.34 1018.48 1018.21 1018.28 1018.68 1018.67 1018.93 1019.09 1019.12 1019.07 1018.80 1018.53 1018.20 1017.96 1017.58 1017.25 1017.17 1017.17 1017.18 1016.84 1016.48 1016.26
1010.63 1010.74 1010.10 1010.14 1010.11 1010.21 1010.77 1011.78 1012.76 1013.91 1015.16 1015.14 1013.89 1013.43 1013.26 1013.54 1013.93 1014.67 1015.39 1016.21 1017.04 1017.56 1017.89 1018.22 1018.27 1018.40 1018.45 1018.45 1018.87 1019.26 1019.31 1019.32 1019.17 1018.90 1018.58 1018.30 1017.98 1017.55 1017.24 1017.11 1017.12 1017.02 1016.76 1016.35
1011.22 1011.84 1011.64 1011.18 1010.81 1010.84 1011.29 1012.11 1013.29 1014.51 1015.36 1015.79 1015.30 1014.34 1013.27 1013.74 1013.84 1014.04 1014.45 1015.34 1015.93 1016.50 1016.94 1017.62 1018.01 1018.18 1018.41 1018.61 1018.93 1019.20 1019.33 1019.35 1019.26 1019.13 1019.06 1018.82 1018.49 1018.04 1017.61 1017.20 1017.03 1017.09 1016.98 1016.71
1012.36 1012.99 1013.23 1012.56 1011.37 1011.60 1011.88 1012.63 1013.68 1015.36 1016.04 1016.12 1015.77 1014.68 1013.32 1013.19 1013.19 1013.38 1013.62 1013.87 1014.81 1015.46 1016.40 1016.98 1017.53 1017.89 1018.20 1018.74 1019.03 1019.26 1019.41 1019.47 1019.39 1019.20 1019.06 1018.85 1018.48 1018.11 1017.94 1017.75 1017.40 1017.08 1016.92 1016.84
1013.43 1014.10 1014.39 1013.36 1012.45 1012.32 1012.60 1013.02 1013.63 1014.58 1015.36 1016.08 1016.11 1014.76 1013.06 1012.99 1013.23 1013.22 1013.37 1013.53 1014.11 1014.92 1015.49 1016.19 1016.94 1017.52 1018.01 1018.30 1018.78 1019.08 1019.34 1019.42 1019.25 1019.13 1018.97 1018.65 1018.41 1018.22 1017.96 1017.66 1017.49 1017.21 1017.06 1016.75
1013.76 1014.82 1015.24 1015.08 1014.20 1013.96 1013.59 1013.40 1013.52 1014.23 1015.10 1015.37 1015.07 1014.27 1013.35 1012.75 1012.51 1012.54 1012.53 1012.91 1013.51 1014.23 1014.85 1015.74 1016.51 1016.92 1017.27 1017.93 1018.57 1018.72 1018.85 1018.78 1018.72 1018.68 1018.79 1018.65 1018.20 1017.99 1017.84 1017.56 1017.53 1017.23 1017.02 1016.70
1014.44 1015.51 1015.59 1015.42 1014.86 1014.30 1013.87 1013.53 1013.40 1013.58 1013.89 1014.28 1014.20 1013.79 1013.19 1012.78 1012.57 1012.41 1012.60 1013.16 1013.69 1014.41 1015.03 1015.42 1016.18 1017.00 1017.63 1018.36 1018.24 1018.30 1018.26 1018.28 1018.14 1018.32 1018.37 1018.27 1017.80 1017.68 1017.73 1017.58 1017.38 1017.07 1016.71 1016.53
1014.86 1015.73 1015.95 1015.94 1015.52 1014.84 1013.96 1013.33 1012.80 1012.69 1013.05 1013.40 1013.48 1013.46 1012.61 1012.35 1012.70 1013.02 1013.37 1013.87 1014.85 1015.44 1016.02 1016.47 1017.01 1017.46 1017.46 1018.14 1017.66 1017.67 1017.45 1017.53 1017.67 1017.89 1017.83 1017.59 1017.57 1017.45 1017.46 1017.31 1017.13 1016.99 1016.72 1016.65
1015.07 1015.81 1016.38 1016.51 1016.20 1015.44 1014.31 1012.87 1012.42 1012.38 1012.79 1013.43 1014.01 1013.74 1013.37 1013.54 1013.89 1014.35 1014.54 1014.96 1015.60 1016.03 1016.44 1017.01 1017.32 1017.38 1018.05 1018.21 1017.46 1017.78 1017.44 1017.09 1017.50 1017.62 1017.50 1017.25 1017.18 1017.10 1017.13 1017.13 1016.96 1017.03 1016.97 1016.80
1014.96 1015.97 1016.76 1017.16 1016.71 1016.14 1013.91 1012.87 1012.25 1012.65 1013.21 1013.72 1014.10 1014.30 1014.43 1014.86 1015.14 1015.25 1015.46 1015.99 1016.49 1016.70 1016.93 1017.07 1017.12 1017.29 1017.66 1017.36 1017.42 1017.41 1017.50 1017.54 1017.60 1017.50 1017.47 1017.27 1016.90 1017.17 1017.08 1017.09 1017.27 1017.15 1016.93 1016.97
1014.35 1015.72 1017.09 1017.52 1017.30 1016.01 1014.23 1013.33 1013.05 1013.50 1014.54 1014.73 1014.96 1015.07 1015.26 1015.11 1015.52 1016.38 1016.48 1016.73 1017.05 1017.30 1017.35 1017.39 1017.97 1017.91 1017.75 1017.70 1017.67 1017.68 1017.76 1017.86 1017.62 1017.63 1017.52 1017.39 1017.11 1017.24 1017.34 1017.30 1017.31 1017.10 1016.92 1016.80
1014.17 1015.30 1016.87 1017.57 1017.66 1016.50 1014.46 1013.66 1013.57 1013.79 1015.04 1015.50 1015.59 1015.83 1015.94 1016.05 1016.75 1017.46 1017.16 1017.68 1017.85 1018.01 1018.08 1018.01 1018.35 1018.41 1018.21 1018.15 1018.18 1018.27 1018.32 1018.11 1018.15 1017.89 1017.81 1017.63 1017.58 1017.60 1017.60 1017.41 1017.21 1017.02 1016.81 1016.79
1014.86 1015.99 1016.88 1017.52 1017.52 1016.20 1015.09 1014.13 1013.91 1014.93 1016.41 1015.86 1015.91 1016.10 1016.29 1016.78 1017.07 1017.46 1017.42 1018.03 1018.39 1018.93 1018.79 1018.72 1018.79 1019.51 1018.77 1018.48 1018.64 1018.79 1018.74 1018.62 1018.49 1018.20 1018.11 1018.02 1018.12 1018.21 1017.83 1017.51 1017.30 1017.22 1017.00 1016.82
1014.93 1015.90 1016.70 1017.11 1017.28 1016.32 1015.17 1014.63 1015.23 1016.19 1016.07 1016.07 1016.26 1016.58 1016.83 1016.97 1016.94 1017.16 1018.02 1018.76 1018.99 1019.12 1019.24 1019.24 1019.50 1019.80 1019.31 1018.90 1018.78 1018.84 1019.13 1018.90 1018.72 1018.69 1018.58 1018.43 1018.34 1018.25 1017.96 1017.74 1017.46 1017.27 1017.20 1017.08
1014.64 1015.04 1015.64 1016.26 1016.17 1015.36 1014.84 1014.83 1015.04 1015.36 1015.90 1016.21 1016.32 1016.55 1016.93 1017.54 1017.87 1018.21 1018.79 1019.17 1019.65 1019.60 1019.23 1019.37 1019.38 1019.49 1019.11 1019.15 1019.02 1019.43 1019.41 1019.16 1019.25 1019.28 1019.30 1019.15 1018.61 1018.40 1018.06 1017.89 1017.63 1017.45 1017.35 1017.20
1014.27 1014.52 1015.33 1015.71 1015.28 1015.51 1014.97 1015.08 1015.33 1015.40 1015.97 1016.13 1016.38 1016.75 1017.14 1017.88 1018.39 1018.93 1019.21 1019.32 1019.53 1020.13 1020.16 1019.46 1019.42 1019.57 1020.02 1020.02 1019.90 1019.50 1019.35 1019.31 1019.41 1019.61 1019.79 1019.23 1018.90 1018.68 1018.15 1017.82 1017.73 1017.76 1017.79 1017.61
1014.86 1014.87 1015.01 1015.18 1015.13 1015.21 1015.41 1015.54 1015.60 1015.68 1015.89 1016.18 1016.43 1016.95 1017.52 1018.07 1018.80 1019.24 1019.54 1019.54 1019.08 1019.27 1019.82 1019.55 1019.65 1020.03 1020.13 1020.00 1019.86 1019.61 1019.47 1019.53 1019.79 1020.01 1019.73 1019.42 1019.21 1018.97 1018.66 1018.35 1018.13 1018.03 1017.97 1017.82
1014.96 1014.79 1014.87 1015.19 1015.21 1015.41 1015.57 1015.53 1015.52 1015.69 1015.86 1016.26 1016.65 1017.16 1017.70 1018.15 1018.70 1019.15 1019.50 1019.43 1019.40 1019.69 1019.75 1020.06 1020.17 1020.18 1020.13 1019.99 1019.87 1019.72 1019.71 1019.85 1020.11 1019.98 1019.94 1019.75 1019.41 1019.26 1018.99 1018.69 1018.46 1018.17 1018.03 1017.68
Wind_Speed
8 3 5 6 3 6 5 6 7 3 5 6 4 4 11 0 16 16 17 16 16 16 13 16 17 18 18 17 17 17 14 6 6 14 14 4 4 4 5 6 7 7 6 7
0 1 3 4 3 2 5 6 9 4 10 8 5 7 10 8 12 15 17 15 14 13 17 17 18 19 16 14 14 13 14 12 7 5 5 4 4 4 7 5 6 6 5 5
7 5 4 3 5 6 4 7 7 4 7 9 5 9 8 12 19 20 19 16 15 13 13 12 14 11 12 14 14 13 11 8 9 9 6 5 4 5 5 9 11 8 6 7
2 6 4 3 3 4 4 9 10 10 8 3 7 7 4 15 16 18 17 14 11 10 11 8 8 7 8 10 8 10 12 12 11 13 11 14 9 8 8 6 7 8 8 11
8 2 3 1 7 8 3 8 7 5 7 5 11 1 6 18 13 14 15 13 12 9 8 6 6 7 5 7 8 6 7 11 14 13 12 10 11 8 7 8 13 14 15 8
7 2 3 2 6 3 5 4 7 6 3 3 20 9 6 7 16 12 14 12 12 9 7 6 5 7 6 7 6 6 7 8 10 11 11 11 11 10 10 10 10 9 8 9
6 10 4 8 1 6 4 6 4 6 4 9 10 3 4 11 16 18 14 11 8 8 7 6 5 4 6 7 8 6 6 7 7 8 9 8 6 10 10 8 6 8 7 7
3 5 4 2 4 2 4 2 5 3 4 7 10 4 2 15 16 15 14 11 9 8 7 8 6 5 4 7 7 7 8 8 7 8 8 8 8 6 6 5 5 5 5 3
4 2 1 5 7 5 3 3 3 0 4 2 4 4 5 13 13 14 14 12 9 9 8 9 8 8 6 6 4 7 7 7 7 7 6 7 7 7 8 9 8 7 7 7
4 5 3 2 3 6 7 2 5 4 2 3 4 0 6 8 7 14 12 12 10 9 9 7 6 6 6 7 6 6 4 5 6 6 6 5 6 7 6 6 7 7 6 9
3 3 7 8 2 3 4 1 2 2 3 3 1 6 6 8 6 7 5 15 15 14 11 8 8 7 7 7 6 5 4 2 3 4 5 7 6 7 6 6 5 5 5 6
2 3 3 6 13 5 6 2 4 6 6 2 3 6 6 9 9 8 8 6 14 12 9 10 9 7 8 6 6 5 2 2 2 3 3 4 5 5 6 6 6 7 6 6
3 3 2 8 5 5 3 4 4 3 3 3 2 7 5 5 5 4 5 4 11 10 11 10 8 8 9 8 7 7 5 3 3 3 3 3 4 5 5 6 7 6 6 7
7 2 3 5 6 4 6 9 6 7 4 6 7 8 6 4 2 7 6 5 6 11 12 11 9 8 10 7 6 6 6 7 6 5 5 3 3 4 5 5 6 6 6 6
6 3 3 6 8 11 11 11 12 8 7 5 6 7 8 4 8 4 4 7 8 10 9 12 10 7 8 5 8 8 8 7 7 5 5 7 6 5 5 6 7 7 6 6
5 4 4 5 8 11 15 15 15 5 6 6 8 7 7 5 8 9 8 9 11 12 11 13 10 10 8 7 6 7 9 7 6 5 6 6 7 6 7 7 7 7 6 6
6 3 1 4 6 11 10 7 6 2 3 4 4 7 6 9 13 12 12 11 8 6 7 8 10 12 12 9 6 9 4 3 5 5 7 8 6 6 6 6 4 6 6 5
3 0 1 3 3 4 10 8 4 4 6 7 6 13 10 10 11 11 10 10 9 6 3 5 5 5 6 3 6 4 4 4 3 4 4 4 6 4 5 4 5 4 4 5
8 5 2 4 4 10 16 4 3 5 5 11 8 13 12 11 9 7 8 7 8 8 7 7 8 6 8 8 6 6 6 4 5 4 5 6 5 5 5 5 4 4 5 5
6 5 6 1 0 3 1 8 7 5 2 7 8 8 9 9 6 4 4 7 7 8 7 7 7 4 6 3 4 8 6 6 6 6 6 7 5 7 6 5 5 4 4 5
3 1 5 3 4 6 7 8 4 2 3 3 3 4 4 3 4 3 9 9 8 5 8 10 10 8 6 8 7 6 5 5 5 6 8 9 8 8 7 5 4 5 6 6
7 7 4 4 3 6 6 6 4 4 4 3 6 8 6 6 5 5 9 8 7 7 5 6 4 3 4 1 3 3 6 6 6 6 6 7 7 6 6 7 5 6 6 5
3 4 5 7 5 6 4 5 6 5 1 4 4 4 7 8 8 6 7 8 6 5 4 2 5 7 2 7 8 6 4 6 6 6 7 7 6 6 6 5 6 3 4 3
4 5 3 5 2 5 6 6 6 8 6 6 5 6 7 6 7 8 6 6 6 3 4 5 6 6 6 5 4 4 4 5 6 6 6 6 6 7 6 5 4 4 4 4
4 4 5 5 0 5 8 6 6 6 4 2 6 8 8 10 7 7 3 2 4 5 3 5 5 6 5 5 5 5 4 6 5 4 5 6 5 6 5 4 2 2 1 2
3 2 3 3 2 4 1 4 4 4 3 7 7 6 7 7 6 5 4 2 6 5 6 6 5 4 2 4 5 5 5 4 4 5 4 5 4 4 4 4 4 6 7 10
Wind_Direction
226 131 223 229 61 5 325 342 338 83 142 116 131 275 288 191 103 93 84 73 61 48 32 27 24 36 31 24 18 13 30 8 106 221 253 212 222 234 245 240 250 241 208 209
336 247 43 22 96 342 345 325 304 5 20 58 17 290 284 73 98 92 88 77 67 47 35 23 16 30 35 29 21 22 22 18 7 319 274 291 262 242 230 224 234 244 249 248
201 156 128 65 335 318 4 36 7 18 4 347 353 293 259 99 101 94 83 80 68 60 50 26 16 22 31 32 25 20 27 31 25 11 351 357 355 341 360 357 341 320 261 206
93 117 53 9 300 16 74 12 9 358 15 283 63 285 333 133 113 97 93 85 78 70 58 42 10 15 38 34 34 28 19 29 30 31 34 42 35 18 1 360 332 337 341 47
248 53 157 267 64 41 316 32 342 310 296 331 276 290 281 135 111 101 99 101 102 87 93 74 18 355 51 58 36 25 21 30 30 42 49 49 43 33 20 8 20 13 14 11
263 167 137 91 39 346 281 308 298 276 185 295 260 175 308 173 132 110 104 104 111 118 113 121 87 19 19 27 48 34 24 34 37 34 32 43 33 35 35 30 23 15 20 28
309 235 122 89 349 17 45 25 342 349 9 234 330 316 157 87 114 117 116 112 109 109 104 91 76 71 33 22 22 32 32 39 28 32 35 34 6 26 40 30 18 31 26 7
336 344 3 135 85 63 323 170 151 261 323 308 330 99 160 104 109 113 122 122 124 129 142 148 160 133 85 50 27 31 32 33 26 22 23 16 14 18 14 38 49 34 19 348
25 99 62 88 68 87 338 346 194 214 278 333 232 66 76 125 129 130 136 140 151 157 182 175 156 131 128 98 51 47 34 26 24 22 23 15 10 25 25 23 24 17 11 3
20 339 340 164 166 240 169 214 16 349 219 280 314 355 182 151 132 153 152 155 165 175 180 161 143 159 166 138 107 76 45 43 20 19 12 15 12 14 21 21 19 17 8 6
71 107 298 359 230 296 36 353 21 123 122 177 300 291 122 125 132 133 161 171 175 182 183 168 181 174 128 125 129 133 93 71 14 6 4 7 356 0 5 11 6 1 353 358
55 110 313 276 288 357 75 39 108 121 286 323 165 268 146 158 168 177 220 205 186 182 170 175 180 162 139 166 145 132 180 106 22 353 11 2 351 354 358 352 348 358 355 345
337 3 327 307 18 44 74 319 327 200 128 224 155 262 249 120 83 350 301 84 176 174 181 171 175 162 162 154 161 163 188 189 250 269 287 314 333 345 349 349 340 345 346 351
91 129 168 214 265 304 317 309 247 219 190 229 224 255 292 258 44 255 246 146 135 183 192 179 175 170 158 157 155 166 200 204 232 241 237 259 293 314 327 333 328 331 332 352
113 180 254 277 303 305 299 287 287 277 256 247 250 269 272 257 223 213 116 72 58 53 43 187 169 130 121 128 193 189 212 214 218 212 256 250 240 258 280 292 294 300 317 326
166 208 222 276 306 302 291 294 283 258 286 316 327 328 280 325 74 67 63 51 75 70 73 81 81 88 123 206 222 218 223 211 185 221 246 255 235 244 261 269 271 284 301 309
148 161 57 259 308 315 307 257 321 73 45 22 341 269 336 43 55 47 60 61 79 86 107 135 151 163 200 226 196 248 219 162 192 230 252 264 245 233 254 250 292 336 344 350
187 95 168 252 317 261 243 334 33 313 72 15 359 34 46 77 75 59 49 76 57 67 61 98 164 173 217 156 159 156 67 39 333 302 348 351 32 10 334 6 35 356 351 320
179 167 195 163 213 267 303 26 67 86 43 35 39 35 27 9 84 47 67 81 95 74 50 65 71 65 44 48 49 58 49 10 25 25 9 358 6 4 31 14 348 320 332 321
100 114 129 277 113 255 283 44 24 71 144 26 32 40 34 27 34 316 114 70 60 49 33 55 70 65 84 58 29 25 8 37 18 25 15 8 24 13 342 325 333 305 325 309
141 138 179 209 212 272 354 358 131 323 216 6 21 342 59 43 194 174 108 86 73 64 54 56 49 5 35 53 54 42 24 21 345 8 23 26 15 356 331 343 333 321 325 321
170 152 211 194 197 262 2 49 53 190 330 340 27 28 21 6 351 353 102 106 89 71 54 47 29 332 304 68 104 61 17 352 20 24 16 6 347 328 323 326 314 317 321 327
62 134 189 161 212 200 171 189 190 166 181 46 44 12 29 27 41 68 100 85 67 80 95 119 225 282 11 63 79 78 30 27 27 13 354 338 343 322 319 321 311 328 343 353
357 50 92 69 356 35 35 51 76 72 61 24 13 59 69 54 73 81 91 87 90 8 268 230 80 67 35 50 43 55 34 5 4 18 345 337 349 328 334 350 8 7 23 5
227 109 202 219 270 49 33 43 54 65 68 330 73 65 84 93 83 97 104 177 174 164 47 67 66 59 30 11 6 1 25 26 29 352 349 357 337 330 341 353 326 72 293 292
315 289 126 194 131 137 8 342 356 342 356 84 86 62 95 112 133 143 199 205 58 85 54 43 43 27 38 360 326 339 37 39 39 9 10 335 346 353 341 5 344 337 0 3